RH
22 27 23 31 29 23 22 28 39 38 43 37 53 75 68 45 34 32 30 33 37 39 37 40 38 52 51 47 52 69 74 86 97 75 74 85 84 78 83 94 91 95 97 87
28 29 39 42 36 35 37 42 54 52 33 39 47 40 36 34 33 37 41 42 42 39 43 52 43 33 30 51 55 74 74 96 100 66 61 78 88 88 86 91 96 93 96 84
33 36 55 53 50 47 42 52 56 54 44 43 42 63 60 54 46 39 36 38 37 41 48 49 58 41 36 42 48 47 54 91 72 68 56 83 100 100 93 90 97 96 91 80
47 56 66 65 66 57 49 64 74 64 63 60 67 64 62 63 63 47 43 50 49 59 65 55 55 53 46 43 44 42 74 95 85 57 56 82 76 86 95 96 90 86 78 96
63 70 71 74 74 64 59 58 80 91 83 74 71 67 75 67 64 64 62 70 59 70 74 69 76 59 61 66 59 75 98 88 93 92 67 74 84 88 94 95 96 99 100 100
75 74 81 74 80 78 70 95 96 91 80 82 80 79 67 62 62 62 55 66 84 79 71 66 66 64 57 64 73 95 96 97 95 91 70 71 92 89 98 96 97 86 97 80
71 79 82 76 87 88 97 89 92 98 90 92 73 61 64 73 77 93 81 81 87 84 90 88 90 78 95 95 86 60 94 94 92 92 92 100 80 88 77 90 96 98 94 99
76 76 88 96 91 96 99 94 96 96 97 83 76 84 82 93 80 84 79 88 96 95 93 97 96 88 89 83 73 85 74 89 95 96 97 90 94 93 97 97 94 97 98 98
67 89 95 86 95 89 92 96 98 95 99 92 98 94 94 96 99 84 78 84 82 89 93 93 97 94 78 84 90 87 94 95 93 94 99 99 99 91 97 96 96 100 97 100
92 90 86 93 97 85 86 85 90 99 97 96 96 96 98 97 97 96 93 88 82 81 94 88 96 91 80 98 96 95 94 95 97 97 97 98 94 96 96 98 96 98 97 100
71 84 93 91 84 84 82 92 84 84 98 97 92 90 93 93 94 96 81 74 82 97 96 97 93 99 95 92 94 96 93 97 95 95 98 98 96 92 93 99 98 99 98 100
73 93 96 92 92 81 79 84 70 79 83 99 97 97 97 95 96 100 95 97 91 89 95 94 90 90 90 97 96 90 95 98 96 99 98 98 100 100 100 98 98 100 98 100
95 96 92 94 84 76 81 69 52 52 94 99 97 97 94 92 97 100 97 83 97 96 96 96 95 98 89 96 96 96 93 90 97 94 97 100 100 98 97 99 98 98 95 98
96 94 89 90 80 90 86 61 59 72 94 90 99 96 95 93 89 100 100 96 96 96 95 95 96 94 90 96 92 92 99 87 100 100 92 98 98 98 97 96 96 92 92 96
97 87 87 99 97 89 71 66 54 53 86 94 96 95 100 92 87 93 95 99 96 95 95 94 98 96 86 84 83 98 100 100 99 99 99 100 98 99 98 97 96 94 99 91
86 88 78 99 100 88 71 89 77 40 90 91 96 94 86 92 90 86 89 95 94 95 95 98 98 98 78 96 100 100 100 100 100 100 99 100 100 97 100 99 98 95 98 96
99 71 84 94 77 64 56 89 61 70 99 95 96 96 77 78 93 94 90 86 92 94 88 94 90 80 66 95 99 100 100 100 100 100 97 94 98 100 100 99 98 100 100 100
100 70 60 42 43 41 50 42 65 92 79 80 95 81 75 72 88 96 83 71 68 73 92 84 69 64 72 98 100 100 100 94 97 95 99 100 100 99 96 97 100 98 96 99
62 41 38 39 34 54 93 64 35 49 59 71 80 97 97 78 77 94 85 69 91 73 78 68 64 79 100 100 100 100 100 100 100 97 94 94 97 97 97 98 94 98 100 99
64 39 21 36 63 47 52 32 28 43 55 62 86 89 95 89 87 86 85 74 96 100 96 64 91 100 99 98 100 100 100 100 100 99 97 97 98 99 100 100 100 100 100 100
42 22 28 30 30 27 37 61 77 68 90 85 83 86 98 81 100 100 92 95 86 99 95 84 97 99 99 98 87 90 97 98 100 100 100 98 98 100 100 100 99 100 100 100
29 18 22 25 31 37 60 93 74 91 100 89 99 98 95 93 97 95 72 95 84 100 66 88 100 93 98 100 96 90 93 95 95 97 98 97 100 100 100 100 100 100 100 99
12 16 35 40 68 91 98 100 93 99 81 86 98 99 100 80 70 76 81 95 100 67 96 100 99 85 99 100 100 99 95 95 96 96 97 98 100 99 100 100 100 100 99 98
29 52 94 92 98 99 100 100 98 88 100 99 100 98 87 71 69 83 82 84 79 94 100 100 89 90 100 100 99 100 100 99 100 99 99 99 100 98 96 97 100 100 97 96
65 68 100 100 85 94 98 97 98 92 94 100 95 80 69 80 85 86 82 83 99 98 99 95 92 100 99 100 100 100 100 100 100 99 100 99 98 99 95 93 95 96 99 98
76 90 88 82 84 94 100 100 96 85 84 96 71 72 92 98 97 94 100 93 100 95 93 99 100 100 98 100 100 100 100 100 100 100 100 100 100 100 100 96 97 97 99 96
82 99 100 99 100 100 98 98 92 68 76 91 77 97 100 79 97 100 100 100 96 100 100 100 100 100 100 100 99 98 100 100 100 100 100 99 99 100 100 100 91 92 89 91
Wind_Speed
7 7 7 9 13 15 14 4 2 3 2 2 1 1 3 1 3 3 3 3 5 5 2 4 5 6 7 14 15 7 5 5 3 7 3 3 4 6 5 4 4 2 2 6
7 7 6 9 11 15 15 5 1 4 3 1 2 3 3 3 2 4 3 4 6 4 4 3 4 4 3 16 10 9 7 1 1 6 6 5 2 4 3 3 1 8 4 6
7 6 5 8 9 10 11 4 2 2 4 2 4 1 4 2 3 5 6 5 5 3 4 6 4 3 3 16 16 18 15 4 8 8 8 5 2 3 4 5 3 3 6 5
6 5 7 8 8 8 8 1 3 2 2 2 3 4 3 6 5 7 5 2 5 7 8 8 7 6 4 6 16 16 5 5 4 6 5 5 5 7 6 8 6 7 5 7
6 7 9 9 10 9 4 3 3 2 4 5 2 3 4 6 7 4 5 8 11 8 10 9 10 7 5 6 6 5 6 6 6 7 10 8 9 8 7 2 2 1 2 6
6 8 9 10 8 6 1 3 3 3 5 2 3 4 5 4 7 8 8 6 6 7 11 15 21 24 21 13 7 8 6 4 5 5 4 3 4 5 3 2 1 5 4 4
8 9 9 7 5 6 3 3 6 4 3 4 5 3 6 7 6 5 10 19 10 7 12 10 8 12 13 13 15 18 7 6 5 4 4 3 3 2 5 4 1 2 1 2
9 9 6 6 7 4 7 9 7 4 3 6 10 10 8 7 17 12 10 6 5 9 6 2 3 3 2 7 7 9 13 7 3 3 3 1 4 4 2 1 1 2 2 3
7 6 7 8 4 6 8 7 6 6 4 3 4 3 6 3 1 4 3 4 6 3 3 2 4 3 4 4 6 4 5 4 3 2 4 5 2 5 7 0 2 3 4 5
7 8 7 4 6 7 6 4 6 5 6 4 6 4 3 4 2 2 3 6 4 4 2 3 2 4 4 1 1 4 2 1 3 3 2 3 4 11 8 3 1 5 5 7
7 5 3 7 7 7 7 6 7 7 4 5 7 5 4 4 3 1 5 5 2 2 3 2 3 1 2 4 3 4 4 3 3 1 3 3 14 1 2 1 5 5 6 8
5 3 4 7 6 9 8 6 5 2 1 4 6 8 8 7 5 5 3 3 5 3 2 2 2 3 3 1 2 4 2 3 2 2 2 1 11 13 8 5 4 6 9 11
3 3 5 7 9 6 4 3 2 1 6 6 2 5 9 10 5 4 4 3 3 4 5 3 2 6 3 2 3 2 6 13 3 2 6 7 8 7 7 7 7 9 10 11
1 3 5 7 4 3 2 2 2 4 5 5 4 4 10 18 13 8 11 18 14 6 6 6 3 3 7 3 3 3 3 6 4 2 5 1 7 8 9 10 9 10 9 12
3 4 4 4 4 2 2 2 8 5 3 3 6 6 12 10 20 13 9 2 9 5 5 6 3 4 4 4 3 4 10 2 2 2 5 5 4 9 9 11 11 11 13 14
2 2 5 9 7 5 2 2 3 8 6 4 2 4 18 9 17 20 17 9 10 11 7 6 5 10 4 3 3 10 15 9 9 4 11 6 5 5 9 11 11 10 14 13
10 8 10 13 4 2 8 7 11 6 6 4 5 3 10 12 10 14 12 19 14 9 6 6 6 10 8 3 2 13 14 7 11 10 9 5 8 9 10 11 11 11 13 12
17 13 10 9 9 14 14 21 11 5 7 9 3 5 6 22 10 7 11 5 9 13 6 5 5 7 7 3 8 13 13 9 8 13 11 9 9 10 12 11 11 13 12 12
15 14 12 10 6 7 11 9 13 19 14 7 6 5 4 17 11 8 4 5 4 6 5 5 5 3 4 4 11 13 12 12 14 14 13 12 12 13 13 13 12 13 14 16
11 8 4 6 7 7 4 3 7 13 13 9 6 12 3 11 9 9 6 6 2 3 3 6 3 2 5 11 12 12 11 12 14 16 16 18 19 18 17 16 16 14 15 17
3 4 7 10 8 5 8 8 10 11 6 9 9 9 8 10 4 3 8 1 3 3 3 3 2 2 9 12 14 13 13 13 13 13 15 17 17 18 19 20 19 17 17 18
9 15 14 9 11 10 10 4 6 7 1 10 9 12 9 7 7 5 8 2 4 2 3 3 2 3 14 14 17 17 16 16 16 16 18 17 17 16 18 18 17 17 17 17
11 7 7 10 11 13 7 7 5 4 10 7 19 11 7 6 9 4 6 5 1 2 4 1 3 11 18 17 19 22 21 18 17 16 16 17 17 17 17 18 17 17 18 17
10 9 8 5 5 4 1 2 5 9 9 18 17 7 6 5 6 3 5 2 4 4 4 3 4 22 21 19 22 22 22 21 20 18 18 18 18 19 18 17 17 18 19 16
9 9 5 3 8 10 10 10 9 6 8 11 4 2 5 8 4 4 3 6 3 1 3 3 19 20 23 23 22 21 23 23 22 20 20 20 19 20 20 17 17 17 16 16
10 12 6 7 4 14 15 16 15 10 5 2 3 3 4 4 2 5 2 3 2 3 6 20 21 24 23 21 21 21 22 22 21 20 20 19 19 18 19 17 15 15 15 16
8 7 12 6 4 8 16 17 18 10 4 3 4 5 2 2 4 4 1 2 4 19 21 21 22 25 23 22 24 21 23 23 22 22 21 20 18 18 17 18 17 17 16 15
Wind_Direction
303 322 337 349 347 357 1 17 49 180 288 311 48 162 201 304 231 246 268 195 220 219 226 259 250 231 216 182 158 166 204 147 207 225 249 176 157 214 179 226 248 223 204 261
295 316 337 349 352 357 7 353 251 224 211 213 242 300 299 272 241 207 204 228 213 191 206 272 236 249 285 184 164 170 184 254 20 333 354 357 167 235 151 119 72 239 237 270
287 302 325 344 354 358 359 341 347 204 216 205 149 76 254 260 279 262 239 237 224 210 232 223 253 245 231 205 202 220 176 148 168 209 206 146 163 219 202 170 206 193 223 278
287 295 317 331 339 351 352 186 239 205 265 213 147 168 250 258 269 235 274 250 217 221 263 250 233 234 225 225 223 238 163 238 197 228 194 158 207 212 188 198 207 213 264 208
280 294 306 320 324 328 318 265 237 211 273 272 265 275 217 256 270 221 271 250 259 227 228 208 253 249 208 211 228 178 160 248 207 235 232 213 234 230 198 190 191 257 108 281
274 289 301 313 324 335 240 209 253 248 252 222 115 221 225 238 341 298 283 307 316 266 251 260 267 260 254 226 196 184 180 187 191 232 205 199 272 237 175 171 252 147 184 233
277 287 299 312 302 299 290 248 259 241 258 193 217 238 255 289 279 268 284 285 266 281 281 254 281 289 269 267 251 219 183 197 198 215 128 209 244 335 215 124 105 158 73 263
276 287 290 293 305 274 262 263 264 252 262 243 277 261 267 283 298 280 273 292 311 317 313 320 304 272 298 239 256 217 196 203 197 169 176 124 351 358 34 297 179 201 163 342
276 275 285 302 289 270 273 265 250 248 277 264 298 263 255 248 253 320 245 286 299 272 257 216 197 231 231 301 319 327 172 173 171 158 146 212 97 39 12 58 261 60 77 22
265 282 289 284 271 273 276 275 262 255 261 25 24 33 335 306 277 261 321 325 296 235 207 252 232 252 202 264 123 333 101 78 166 208 163 89 359 322 320 165 178 73 46 12
277 276 275 275 281 273 285 258 269 256 235 17 35 56 40 354 18 311 322 330 318 273 246 163 236 134 71 82 26 352 38 355 34 212 100 234 346 315 323 343 54 33 7 355
282 274 262 281 277 289 286 258 262 272 217 104 81 61 33 7 323 293 273 265 286 308 323 24 19 56 49 273 100 13 39 19 82 34 100 84 60 70 60 48 32 359 343 333
268 267 272 274 297 296 256 232 261 246 154 119 131 30 21 15 347 251 271 257 329 339 327 35 71 80 352 50 41 89 360 17 70 99 16 64 56 40 24 3 345 331 329 330
278 258 273 287 284 227 201 213 101 108 126 108 67 71 36 21 6 332 275 264 283 294 50 72 59 68 35 58 86 74 331 342 347 49 18 29 41 19 3 353 341 333 339 341
244 258 248 203 212 170 133 98 72 60 121 112 157 35 35 23 23 12 357 200 175 62 55 49 54 64 84 64 74 33 354 321 56 253 326 302 310 343 346 348 345 341 341 343
72 104 146 189 186 112 99 113 71 4 133 133 115 78 26 37 34 23 37 52 71 80 75 64 66 29 84 79 73 10 19 51 41 354 332 311 328 1 349 344 342 339 335 335
130 96 125 133 129 83 74 32 322 9 123 94 124 64 11 21 33 30 26 46 54 68 81 59 47 25 58 62 59 350 0 352 15 7 356 357 353 330 338 334 332 334 333 331
114 108 107 93 82 101 66 40 37 79 89 68 56 340 18 12 352 1 19 47 43 40 72 66 52 35 55 55 3 3 6 5 2 4 359 355 341 330 331 327 323 326 328 329
119 109 102 108 66 51 28 11 32 58 66 83 53 359 328 351 357 346 26 48 60 44 60 44 68 36 45 308 344 351 356 355 346 343 343 344 341 339 339 340 331 326 328 327
110 127 102 66 36 36 44 15 35 33 38 51 39 357 305 342 334 351 18 36 62 59 55 87 69 70 21 7 353 346 351 343 339 336 336 337 334 331 329 328 326 324 318 315
127 72 69 69 48 50 45 47 38 13 40 15 353 350 336 359 333 317 19 121 26 63 323 81 64 350 344 355 352 347 341 332 327 322 320 320 318 316 316 315 315 313 310 309
96 106 92 48 33 41 63 14 14 36 38 355 347 333 324 324 342 354 358 87 34 46 21 66 46 270 343 346 348 347 340 331 325 320 318 321 320 319 318 318 318 317 311 308
89 62 58 21 11 40 53 357 333 346 349 343 335 325 332 336 2 41 37 58 22 12 42 83 208 340 345 341 340 339 339 336 332 327 323 319 318 318 318 316 317 315 313 316
58 47 36 67 7 24 249 252 270 292 297 320 330 328 360 356 23 3 67 306 39 46 37 273 283 333 338 338 336 337 337 337 334 327 323 321 319 318 319 318 317 316 315 317
64 50 54 62 41 20 350 335 324 314 323 337 341 4 12 13 54 32 47 28 23 141 231 251 320 331 330 331 334 335 336 334 331 333 331 327 323 321 318 319 317 314 311 312
64 47 58 25 6 360 6 5 3 5 6 25 20 46 48 22 88 46 22 84 253 265 292 314 318 323 326 330 327 327 329 331 330 330 329 325 326 323 321 323 325 320 314 315
59 46 46 41 5 352 9 11 7 16 29 38 41 51 244 326 40 18 155 194 275 306 309 312 312 318 318 317 317 318 322 324 325 322 322 321 318 315 315 315 319 318 316 316